Temp
-13 -13 -13 -13 -13 -13 -13 -13 -13 -13 -13 -13 -12 -12 -12 -12 -12 -12 -12 -12 -12 -12 -11 -11 -11 -11 -11 -11 -11 -11 -10 -11 -11 -11 -11 -11 -11 -11 -11 -11 -11 -10 -10 -10 -11
-14 -14 -14 -14 -14 -14 -14 -13 -13 -13 -13 -13 -13 -13 -13 -13 -13 -13 -13 -12 -12 -12 -12 -12 -11 -11 -12 -11 -11 -11 -11 -11 -11 -11 -11 -11 -11 -11 -11 -11 -11 -11 -11 -10 -10
-15 -15 -14 -14 -14 -14 -14 -14 -14 -14 -14 -14 -13 -13 -13 -13 -13 -13 -13 -13 -13 -12 -12 -12 -12 -12 -12 -12 -11 -11 -11 -11 -12 -11 -11 -11 -11 -11 -11 -11 -11 -11 -11 -10 -10
-15 -15 -15 -15 -15 -15 -15 -14 -14 -14 -14 -14 -14 -14 -13 -13 -13 -13 -13 -13 -13 -13 -13 -13 -13 -12 -12 -12 -12 -12 -12 -12 -12 -11 -11 -11 -11 -11 -12 -12 -11 -11 -11 -11 -10
-15 -15 -15 -15 -15 -15 -15 -15 -14 -14 -14 -14 -14 -14 -14 -13 -13 -14 -13 -13 -13 -13 -13 -13 -13 -13 -13 -13 -12 -12 -12 -12 -12 -12 -12 -12 -11 -12 -11 -12 -12 -11 -11 -11 -11
-15 -15 -15 -15 -15 -15 -15 -15 -15 -14 -14 -14 -14 -14 -14 -13 -14 -14 -14 -13 -13 -14 -13 -13 -13 -13 -13 -13 -13 -12 -12 -12 -12 -13 -12 -12 -11 -11 -11 -13 -12 -11 -11 -11 -11
-15 -15 -15 -15 -15 -15 -15 -15 -15 -15 -15 -14 -14 -14 -14 -14 -14 -14 -14 -14 -14 -14 -14 -14 -14 -14 -13 -13 -13 -13 -12 -12 -13 -12 -13 -12 -11 -11 -12 -13 -12 -11 -11 -11 -11
-16 -16 -16 -16 -16 -15 -15 -15 -15 -15 -15 -15 -15 -15 -14 -14 -14 -14 -14 -14 -14 -14 -15 -14 -14 -14 -14 -14 -14 -14 -13 -13 -13 -13 -13 -12 -11 -12 -12 -12 -12 -11 -10 -10 -10
-16 -16 -16 -16 -16 -16 -16 -15 -15 -15 -15 -15 -15 -15 -15 -15 -15 -15 -15 -15 -15 -15 -15 -15 -15 -15 -15 -15 -15 -14 -14 -13 -13 -13 -14 -14 -11 -12 -13 -12 -11 -12 -11 -11 -11
-16 -16 -16 -16 -16 -16 -16 -16 -16 -16 -16 -16 -16 -16 -16 -16 -16 -16 -16 -16 -16 -16 -16 -17 -17 -17 -16 -16 -16 -16 -15 -15 -14 -15 -15 -14 -11 -11 -12 -12 -12 -12 -11 -11 -11
-17 -17 -16 -16 -16 -17 -17 -17 -17 -16 -16 -17 -17 -17 -17 -17 -17 -17 -17 -17 -17 -18 -18 -18 -19 -19 -19 -18 -18 -18 -17 -16 -16 -16 -14 -15 -12 -12 -12 -12 -12 -12 -12 -12 -11
-17 -17 -17 -17 -17 -17 -17 -17 -17 -17 -17 -17 -17 -17 -18 -18 -18 -18 -18 -18 -18 -19 -20 -20 -21 -21 -21 -21 -20 -20 -19 -18 -17 -17 -16 -15 -13 -13 -13 -13 -13 -12 -12 -12 -12
-18 -18 -18 -18 -17 -18 -18 -18 -18 -18 -18 -18 -18 -18 -19 -19 -19 -19 -19 -19 -19 -20 -21 -21 -22 -22 -22 -21 -21 -21 -21 -20 -19 -18 -18 -17 -14 -13 -14 -13 -14 -12 -12 -13 -13
-19 -19 -19 -19 -19 -19 -19 -19 -19 -20 -19 -19 -19 -19 -20 -20 -20 -20 -20 -20 -20 -20 -21 -22 -22 -22 -22 -21 -21 -21 -21 -21 -20 -20 -19 -19 -16 -14 -14 -14 -14 -13 -13 -13 -13
-19 -19 -19 -20 -20 -20 -20 -21 -21 -21 -21 -20 -20 -21 -21 -21 -21 -21 -21 -21 -21 -22 -22 -22 -22 -22 -22 -21 -21 -21 -21 -21 -20 -20 -20 -19 -19 -14 -15 -14 -14 -15 -14 -14 -13
-22 -23 -23 -22 -23 -23 -23 -23 -23 -23 -23 -23 -22 -22 -22 -22 -22 -22 -22 -22 -22 -22 -22 -22 -22 -22 -22 -22 -22 -21 -21 -21 -20 -20 -20 -19 -19 -16 -16 -15 -15 -15 -15 -15 -14
-25 -24 -24 -24 -24 -25 -25 -25 -25 -24 -24 -24 -24 -23 -23 -23 -23 -23 -23 -23 -22 -22 -22 -22 -22 -22 -22 -22 -22 -22 -22 -21 -20 -20 -20 -19 -19 -18 -17 -17 -16 -15 -15 -15 -15
-25 -25 -25 -25 -25 -25 -25 -25 -25 -25 -25 -25 -25 -25 -24 -24 -24 -24 -23 -23 -23 -23 -22 -22 -22 -22 -23 -22 -22 -22 -22 -22 -22 -22 -21 -20 -19 -18 -18 -17 -17 -16 -16 -15 -16
-25 -25 -25 -25 -26 -25 -25 -25 -25 -25 -26 -26 -25 -25 -25 -25 -24 -24 -24 -23 -23 -22 -22 -22 -22 -24 -23 -24 -23 -23 -24 -27 -27 -27 -27 -23 -23 -21 -20 -19 -19 -18 -17 -16 -16
-26 -26 -26 -26 -26 -26 -26 -25 -26 -26 -26 -26 -26 -26 -26 -25 -25 -25 -24 -23 -23 -23 -23 -23 -23 -23 -25 -25 -25 -26 -27 -30 -31 -30 -30 -29 -29 -27 -26 -26 -24 -21 -19 -17 -17
-26 -26 -26 -26 -26 -26 -25 -25 -26 -26 -26 -26 -26 -26 -26 -25 -25 -25 -24 -24 -24 -24 -24 -24 -24 -24 -25 -26 -27 -29 -31 -32 -31 -31 -31 -31 -30 -28 -28 -28 -27 -25 -24 -21 -18
-26 -26 -26 -26 -26 -26 -26 -26 -26 -26 -26 -26 -26 -26 -26 -25 -25 -25 -25 -24 -24 -25 -25 -25 -24 -24 -25 -27 -28 -30 -31 -31 -31 -31 -31 -30 -27 -29 -29 -28 -27 -25 -24 -24 -20
-27 -26 -26 -26 -27 -26 -26 -26 -26 -26 -26 -26 -26 -26 -26 -26 -25 -25 -25 -25 -25 -26 -26 -25 -25 -25 -25 -27 -29 -29 -31 -32 -32 -32 -31 -30 -30 -30 -29 -28 -28 -24 -23 -24 -22
-27 -27 -26 -26 -26 -27 -27 -27 -27 -27 -27 -27 -26 -26 -26 -26 -26 -25 -25 -26 -27 -27 -27 -26 -26 -27 -26 -27 -28 -30 -31 -32 -32 -32 -30 -30 -30 -29 -28 -28 -27 -27 -24 -23 -23
-27 -27 -27 -27 -27 -27 -27 -27 -27 -27 -27 -26 -26 -26 -26 -25 -25 -26 -26 -27 -27 -28 -28 -28 -27 -28 -27 -29 -30 -30 -31 -31 -32 -32 -31 -30 -30 -29 -28 -27 -27 -26 -24 -24 -23
-27 -27 -28 -28 -28 -28 -28 -28 -27 -28 -27 -26 -26 -27 -26 -26 -26 -26 -26 -27 -27 -27 -28 -28 -28 -29 -27 -29 -31 -30 -31 -32 -32 -31 -31 -31 -30 -29 -28 -27 -27 -25 -25 -24 -23
-28 -28 -28 -28 -28 -28 -28 -28 -28 -28 -27 -26 -27 -27 -27 -27 -27 -27 -27 -28 -28 -28 -29 -29 -29 -29 -27 -30 -30 -29 -33 -33 -32 -32 -32 -30 -30 -28 -27 -27 -26 -24 -25 -24 -23
Height
5765 5762 5761 5759 5758 5756 5754 5753 5752 5751 5750 5749 5749 5749 5749 5749 5748 5747 5748 5747 5747 5747 5747 5747 5749 5749 5749 5749 5750 5751 5754 5758 5758 5756 5756 5752 5756 5758 5760 5761 5764 5767 5770 5773 5775
5758 5756 5755 5753 5751 5749 5747 5746 5745 5743 5742 5742 5741 5741 5742 5741 5741 5740 5740 5739 5739 5739 5740 5740 5740 5741 5742 5741 5742 5743 5748 5751 5749 5748 5749 5747 5749 5750 5755 5755 5759 5760 5762 5766 5769
5750 5749 5747 5744 5743 5741 5739 5738 5737 5736 5735 5734 5733 5734 5733 5733 5733 5731 5731 5731 5731 5732 5732 5733 5734 5734 5734 5734 5734 5737 5740 5739 5741 5740 5743 5744 5744 5746 5748 5752 5754 5754 5755 5759 5762
5742 5740 5738 5736 5734 5733 5731 5730 5729 5727 5726 5725 5724 5723 5723 5724 5724 5722 5722 5721 5722 5723 5724 5724 5724 5725 5725 5726 5727 5728 5730 5731 5733 5733 5733 5737 5738 5740 5742 5747 5746 5749 5750 5754 5756
5733 5731 5729 5727 5725 5722 5721 5720 5719 5718 5716 5715 5714 5713 5713 5713 5713 5711 5711 5712 5712 5712 5713 5714 5714 5714 5715 5716 5716 5718 5720 5721 5722 5724 5724 5727 5732 5731 5734 5736 5737 5740 5743 5747 5750
5725 5724 5721 5718 5716 5713 5711 5710 5709 5707 5706 5705 5704 5703 5702 5703 5702 5700 5700 5700 5701 5701 5703 5703 5703 5704 5705 5705 5706 5708 5709 5710 5711 5712 5715 5717 5722 5721 5725 5726 5730 5731 5734 5738 5742
5717 5714 5712 5708 5705 5703 5701 5699 5698 5696 5695 5694 5693 5692 5691 5692 5690 5689 5688 5689 5689 5688 5689 5689 5689 5690 5693 5693 5694 5695 5697 5697 5696 5699 5702 5706 5713 5716 5715 5716 5721 5724 5727 5731 5736
5707 5704 5702 5698 5694 5692 5690 5689 5688 5686 5685 5684 5683 5681 5680 5680 5679 5678 5676 5676 5678 5676 5675 5675 5675 5677 5679 5679 5678 5681 5683 5685 5685 5685 5687 5694 5703 5704 5704 5708 5713 5717 5718 5721 5727
5697 5694 5691 5689 5684 5681 5680 5678 5676 5675 5674 5673 5673 5671 5671 5669 5668 5667 5666 5664 5665 5664 5663 5661 5662 5663 5665 5664 5663 5666 5667 5671 5673 5671 5672 5675 5689 5692 5695 5700 5704 5708 5713 5715 5722
5686 5683 5680 5678 5673 5670 5668 5667 5665 5664 5663 5663 5662 5661 5659 5658 5656 5654 5654 5652 5651 5650 5648 5647 5647 5648 5649 5650 5648 5650 5651 5654 5655 5658 5654 5662 5675 5677 5684 5689 5694 5697 5704 5705 5710
5676 5672 5669 5667 5664 5660 5658 5656 5656 5655 5653 5652 5650 5648 5647 5645 5645 5642 5640 5640 5641 5637 5635 5634 5634 5635 5636 5635 5633 5634 5635 5637 5638 5636 5640 5644 5656 5666 5670 5677 5683 5688 5694 5697 5699
5666 5662 5658 5656 5654 5649 5646 5644 5643 5642 5642 5640 5638 5636 5634 5633 5632 5630 5629 5630 5629 5627 5625 5626 5624 5624 5625 5623 5622 5621 5621 5622 5623 5624 5623 5624 5639 5653 5653 5663 5669 5675 5682 5688 5689
5656 5651 5646 5644 5642 5639 5635 5632 5630 5629 5629 5629 5626 5624 5623 5623 5621 5620 5619 5619 5619 5618 5616 5616 5615 5616 5616 5614 5613 5611 5610 5610 5610 5610 5609 5606 5618 5631 5635 5646 5654 5663 5670 5672 5676
5645 5640 5635 5631 5630 5626 5623 5619 5617 5615 5615 5617 5614 5612 5611 5611 5610 5609 5610 5611 5610 5611 5609 5609 5608 5608 5608 5605 5603 5603 5601 5599 5600 5596 5593 5593 5588 5613 5620 5632 5642 5646 5648 5656 5661
5631 5625 5621 5616 5613 5611 5610 5606 5604 5602 5601 5603 5602 5600 5600 5600 5599 5599 5602 5601 5602 5602 5604 5601 5599 5599 5597 5594 5591 5589 5588 5588 5587 5584 5577 5576 5572 5596 5606 5613 5624 5624 5627 5634 5642
5616 5611 5607 5603 5600 5598 5595 5594 5593 5593 5589 5591 5590 5589 5590 5590 5589 5589 5591 5593 5594 5595 5595 5593 5589 5588 5587 5584 5579 5574 5573 5572 5570 5567 5560 5560 5560 5573 5590 5589 5594 5602 5609 5615 5622
5606 5602 5598 5595 5591 5588 5586 5585 5584 5582 5581 5581 5580 5580 5580 5580 5580 5582 5583 5585 5586 5588 5588 5587 5579 5577 5574 5573 5568 5560 5556 5552 5550 5545 5540 5548 5540 5553 5570 5567 5566 5579 5592 5598 5603
5601 5596 5592 5588 5585 5582 5580 5578 5576 5574 5573 5573 5573 5573 5573 5573 5573 5574 5576 5578 5579 5580 5579 5578 5573 5566 5562 5559 5555 5545 5541 5534 5526 5522 5519 5526 5519 5533 5535 5544 5544 5555 5562 5569 5578
5598 5592 5587 5583 5579 5576 5575 5572 5570 5569 5568 5567 5567 5567 5568 5567 5568 5568 5570 5571 5572 5572 5571 5568 5567 5556 5549 5544 5541 5534 5527 5520 5511 5509 5501 5505 5502 5505 5511 5516 5522 5520 5521 5534 5546
5596 5590 5585 5580 5575 5573 5571 5569 5566 5565 5564 5564 5564 5564 5563 5563 5564 5564 5564 5565 5564 5562 5560 5558 5556 5550 5541 5535 5528 5521 5517 5513 5509 5501 5494 5493 5490 5489 5501 5497 5498 5502 5511 5519 5531
5595 5589 5584 5579 5574 5571 5569 5566 5565 5564 5563 5562 5561 5560 5560 5561 5560 5559 5558 5559 5557 5555 5551 5547 5546 5543 5534 5526 5521 5514 5509 5506 5502 5501 5493 5484 5486 5496 5489 5480 5480 5485 5488 5495 5506
5594 5590 5584 5579 5576 5571 5568 5565 5563 5562 5561 5560 5559 5559 5557 5555 5556 5554 5552 5550 5548 5546 5543 5539 5535 5531 5526 5518 5513 5508 5505 5500 5494 5496 5495 5485 5478 5484 5478 5474 5475 5478 5482 5483 5488
5594 5589 5585 5580 5576 5571 5568 5565 5563 5560 5558 5556 5555 5554 5553 5550 5549 5549 5547 5544 5540 5536 5532 5529 5525 5519 5518 5514 5507 5501 5500 5495 5489 5486 5490 5479 5470 5472 5471 5469 5470 5469 5472 5476 5479
5595 5589 5584 5579 5575 5571 5568 5565 5561 5558 5555 5553 5551 5550 5549 5547 5543 5541 5538 5536 5532 5527 5522 5517 5514 5510 5502 5499 5494 5493 5492 5489 5482 5481 5478 5476 5462 5465 5464 5462 5463 5459 5461 5468 5473
5594 5589 5583 5578 5575 5571 5567 5564 5561 5557 5553 5550 5549 5546 5542 5540 5538 5536 5530 5527 5524 5519 5513 5507 5504 5501 5496 5489 5484 5479 5480 5480 5475 5474 5470 5466 5464 5459 5457 5456 5456 5454 5455 5462 5468
5592 5588 5583 5579 5575 5571 5567 5563 5560 5555 5551 5548 5546 5543 5537 5534 5530 5526 5522 5520 5516 5512 5504 5498 5494 5489 5487 5481 5474 5470 5472 5469 5465 5465 5462 5459 5460 5454 5451 5451 5450 5451 5451 5457 5461
5591 5588 5583 5579 5574 5570 5565 5560 5556 5553 5547 5542 5539 5537 5532 5529 5524 5520 5515 5510 5505 5500 5495 5488 5483 5478 5477 5472 5466 5467 5463 5458 5456 5457 5452 5452 5452 5448 5445 5443 5444 5447 5447 5448 5455
Wind_Speed
30 29 29 29 30 31 31 31 31 32 32 32 32 32 33 33 32 32 32 32 31 31 31 31 30 30 30 30 29 29 27 23 26 29 28 33 29 29 27 27 26 27 31 30 31
32 33 33 34 33 34 34 34 34 33 33 34 34 34 34 34 33 33 34 34 35 35 35 35 35 34 33 34 34 32 29 26 31 35 33 35 33 32 30 29 26 26 30 32 32
35 35 35 35 35 35 35 35 35 35 35 35 37 37 37 37 37 37 37 38 38 39 38 38 38 37 36 36 37 36 32 32 33 36 37 37 36 34 34 28 28 29 31 33 34
34 34 35 37 37 38 39 39 39 41 41 40 41 41 41 42 42 41 41 42 42 42 41 41 40 40 40 41 41 41 37 36 35 37 39 39 40 36 34 28 30 31 31 31 33
37 37 37 39 39 40 40 40 40 40 40 39 40 41 41 42 43 43 44 43 43 44 44 44 44 44 44 43 44 44 43 42 41 39 41 40 39 40 40 33 34 33 33 32 32
41 42 41 43 44 45 45 43 42 43 44 45 45 46 45 46 44 45 47 47 47 47 47 48 49 49 48 49 49 48 47 47 46 45 45 44 40 44 41 38 37 39 37 34 34
44 44 46 46 47 47 46 45 45 45 45 46 46 46 46 46 46 47 47 47 48 50 51 51 53 53 52 52 52 52 52 52 53 51 51 48 44 42 45 43 42 42 42 36 34
44 43 44 43 43 43 43 43 43 42 42 42 43 44 44 44 44 46 48 50 50 51 52 54 56 56 56 56 57 56 57 56 57 56 56 53 50 48 50 49 46 45 47 42 37
43 43 42 41 42 42 41 40 39 38 38 39 40 41 42 43 43 44 45 48 49 52 55 56 58 59 60 59 60 60 60 60 60 61 60 60 55 54 52 50 49 46 47 49 41
41 42 41 40 40 40 39 37 38 40 40 40 41 41 42 42 42 43 44 44 46 50 54 56 55 57 59 59 61 61 62 62 63 62 63 63 61 61 56 53 53 52 47 51 46
36 37 37 36 35 37 38 38 39 40 40 40 41 42 41 41 42 41 42 42 42 41 43 45 47 49 51 55 57 61 63 64 62 66 69 65 67 65 63 57 55 54 51 51 50
40 40 41 39 37 36 37 38 39 40 39 40 40 41 40 40 40 38 38 39 38 36 34 36 39 42 44 47 51 54 58 60 63 65 69 71 68 64 66 61 59 57 54 53 53
41 42 41 40 39 40 41 42 43 43 43 42 41 41 39 39 38 39 38 36 35 33 33 34 35 37 39 44 47 50 53 56 60 63 64 71 73 69 68 65 60 60 56 56 57
46 47 47 47 47 47 47 47 47 46 45 43 42 40 39 37 37 37 35 34 33 32 31 32 35 38 40 44 47 48 49 51 53 58 64 65 77 72 72 67 63 63 62 60 59
53 54 53 52 52 51 51 49 46 45 43 44 40 37 34 34 33 34 32 33 32 31 31 33 36 38 41 44 47 49 51 52 54 57 63 66 74 70 69 69 65 65 66 64 63
53 51 49 50 46 43 41 40 36 36 35 34 34 33 33 34 33 32 30 28 27 27 28 30 35 39 41 43 47 50 51 53 55 58 63 66 70 74 67 71 71 69 68 67 67
37 36 36 34 36 33 32 31 31 29 29 30 28 27 27 28 27 27 26 25 25 24 26 30 35 39 42 40 42 47 49 53 56 58 63 62 70 70 67 73 78 74 70 71 70
35 35 34 33 31 29 26 24 23 23 23 24 25 25 24 22 22 23 22 22 23 24 28 30 36 38 42 43 45 51 51 50 52 54 59 58 69 66 68 70 77 77 76 74 72
32 31 29 28 26 24 22 19 18 18 18 19 20 20 19 19 18 19 20 22 23 24 28 33 34 38 41 44 48 48 46 40 43 45 49 53 54 59 58 64 72 77 83 81 76
27 27 27 24 22 20 18 17 16 14 14 15 15 17 17 17 17 19 20 20 23 26 31 34 36 36 39 42 45 44 41 32 30 37 36 35 38 43 26 27 45 62 73 80 78
27 27 27 24 22 19 17 17 16 13 13 14 14 16 17 16 16 18 20 22 25 28 32 36 37 37 38 42 37 33 31 28 31 30 34 42 39 26 23 27 29 31 34 64 78
26 26 26 25 24 22 21 21 20 19 17 16 16 16 17 19 16 19 23 27 30 31 33 35 38 37 39 37 35 29 27 30 32 30 30 39 32 33 30 36 24 32 30 35 60
27 28 26 25 24 23 22 20 20 20 19 19 18 17 17 21 24 23 26 28 31 32 36 38 39 41 39 32 30 34 28 30 34 32 25 34 46 42 36 31 34 35 28 31 46
24 27 27 28 27 25 23 21 21 21 20 20 20 21 21 23 29 30 31 31 32 35 38 40 40 41 45 44 43 28 29 30 33 27 27 29 40 36 35 26 29 38 31 30 36
25 25 26 28 29 29 28 25 21 18 21 21 21 24 26 26 28 29 34 34 35 37 39 41 41 40 42 44 42 39 25 28 32 27 31 29 31 35 29 23 22 31 35 22 35
24 24 25 27 28 28 28 26 24 24 24 24 23 23 27 31 34 36 38 38 39 40 41 40 42 43 44 41 40 44 29 31 35 30 33 31 27 27 31 28 22 18 22 20 21
23 23 24 26 28 28 28 29 29 27 28 28 28 29 30 33 36 38 40 42 44 44 44 46 45 46 45 41 44 40 20 27 36 37 39 26 24 23 25 26 14 15 22 17 20
Wind_Direction
285 283 282 280 279 277 276 276 277 275 274 273 271 269 268 268 268 270 270 271 270 268 269 268 265 264 264 262 258 258 252 241 251 254 252 262 260 260 256 255 254 251 245 238 238
283 283 283 282 279 278 277 276 276 276 276 276 274 273 271 271 270 271 268 267 267 266 264 264 264 263 264 264 262 259 257 249 246 250 251 259 261 261 258 256 254 248 245 242 234
285 284 283 279 280 280 278 277 278 277 277 277 276 274 273 272 272 274 271 269 268 267 266 266 266 266 265 264 264 262 257 253 247 248 247 254 260 262 264 260 259 254 249 242 240
288 286 285 283 282 282 280 280 281 281 280 278 277 276 275 274 275 275 273 272 272 270 269 268 266 265 266 266 265 263 260 255 254 251 247 246 251 256 260 261 256 256 256 251 246
288 287 285 285 284 283 281 280 278 277 276 277 279 279 277 275 275 275 273 272 272 272 270 269 269 267 267 265 264 263 262 260 256 254 251 248 246 252 251 248 251 251 252 251 247
287 285 283 285 286 285 283 280 279 278 278 279 280 280 278 277 276 275 275 274 272 271 270 269 268 267 266 266 265 265 264 261 259 255 253 251 245 241 246 245 245 249 248 247 246
286 285 284 285 286 284 283 282 282 281 281 280 280 280 280 280 279 278 277 277 276 274 273 272 270 267 266 265 264 262 260 261 258 257 254 251 249 250 248 244 246 248 250 246 246
292 290 289 286 285 285 283 282 281 280 280 279 278 277 277 278 278 278 278 276 275 275 274 272 271 270 268 267 264 261 261 259 259 258 255 252 248 247 249 250 248 246 250 245 241
291 289 287 286 285 283 281 280 279 278 279 280 279 279 279 278 279 279 280 280 278 276 273 271 270 270 268 267 266 263 260 257 256 257 255 254 248 249 248 248 248 248 250 255 248
294 292 292 290 288 287 285 283 282 283 282 281 281 281 281 280 282 284 284 282 280 278 274 271 269 268 267 265 265 263 262 259 256 253 255 251 251 249 246 245 246 248 244 250 250
299 298 296 293 290 290 290 289 286 285 284 285 285 284 284 284 285 285 285 285 283 281 280 277 273 270 267 266 265 263 261 259 258 258 254 252 249 249 250 246 245 246 246 246 249
300 297 294 292 289 289 288 288 287 288 287 286 287 285 282 282 282 280 282 283 283 282 280 275 270 269 269 269 269 270 267 264 260 258 258 256 248 248 250 247 245 243 243 245 246
297 295 293 290 288 289 288 287 286 285 284 284 284 283 281 280 278 277 276 276 276 275 273 269 267 267 270 273 275 277 277 275 272 266 265 261 250 245 245 247 243 246 241 240 243
297 294 291 288 287 285 285 286 285 284 282 282 280 278 276 274 271 271 270 270 269 269 265 263 265 269 274 277 275 273 273 274 274 274 273 270 260 245 245 244 247 243 242 238 239
295 293 292 291 290 290 290 289 288 286 283 280 279 278 274 270 268 267 267 266 264 260 260 267 274 280 285 285 284 282 280 277 274 271 269 268 268 248 247 246 242 243 242 238 235
305 307 307 304 302 301 299 296 291 287 282 279 277 274 271 269 269 268 265 262 260 261 266 278 284 288 289 290 290 289 287 284 279 275 271 269 267 259 254 251 245 239 241 241 236
319 317 316 314 312 310 304 299 295 291 289 284 278 272 270 267 265 265 266 264 264 268 275 280 290 295 294 295 302 306 304 295 285 277 272 269 266 265 258 254 252 243 238 238 240
325 324 323 320 317 315 312 306 300 294 290 286 282 277 273 270 269 268 267 268 271 276 283 288 298 300 304 306 312 315 311 301 291 284 276 269 266 260 254 248 251 248 244 238 236
333 333 331 330 326 322 319 315 309 302 295 291 287 285 283 280 275 276 274 277 280 284 291 297 302 314 316 323 321 321 309 303 294 284 282 273 268 259 256 250 243 244 242 238 235
347 346 345 341 335 329 323 321 319 313 305 299 296 290 283 283 285 281 281 283 292 299 299 304 307 315 325 327 326 319 308 296 290 295 296 290 288 288 285 266 249 245 241 238 237
355 355 353 348 345 339 334 327 328 324 315 307 297 289 288 286 287 290 290 297 304 308 308 309 312 319 327 328 326 302 285 276 275 288 292 295 297 324 273 273 225 221 229 241 233
353 354 356 359 355 350 344 338 334 333 328 315 308 304 301 297 296 301 305 308 310 310 309 311 312 316 324 328 325 296 269 265 277 278 280 286 292 308 300 279 253 202 207 224 237
359 358 356 357 360 359 356 347 342 333 327 322 319 314 312 311 310 311 313 315 312 313 310 311 314 316 319 323 317 301 259 264 280 288 296 289 291 292 298 281 278 199 192 210 235
359 354 354 355 1 1 359 353 346 339 331 328 323 320 318 318 314 318 318 314 315 314 311 310 312 317 317 320 319 311 258 258 280 284 281 288 296 296 297 288 283 276 214 193 227
356 356 354 352 357 359 359 355 347 338 327 326 324 321 316 314 311 316 311 314 313 311 308 307 308 312 313 313 310 308 291 238 269 276 279 278 299 302 301 284 314 274 234 217 204
355 359 354 353 359 357 355 350 351 345 334 329 329 325 316 316 315 316 314 317 314 310 309 306 309 306 310 311 303 303 307 256 261 265 270 279 297 302 294 287 298 291 260 236 212
360 2 360 354 356 356 353 346 344 344 333 329 328 327 320 317 316 318 318 316 315 314 309 307 307 306 307 309 306 320 299 272 254 262 272 275 295 273 264 277 278 231 252 234 240